TimeCDT,TemperatureF,Dew PointF,Humidity,Sea Level PressureIn,VisibilityMPH,Wind Direction,Wind SpeedMPH,Gust SpeedMPH,PrecipitationIn,Events,Conditions,WindDirDegrees,DateUTC
12:56 AM,52.0,30.9,45,30.02,-9999.0,North,13.8,25.3,N/A,,Unknown,350,2013-10-05 05:56:00
1:56 AM,48.9,30.9,50,30.03,-9999.0,NNW,15.0,-,N/A,,Unknown,340,2013-10-05 06:56:00
2:56 AM,48.9,30.9,50,30.05,-9999.0,NNW,16.1,25.3,N/A,,Unknown,340,2013-10-05 07:56:00
3:56 AM,48.0,30.0,50,30.06,-9999.0,NNW,15.0,24.2,N/A,,Unknown,330,2013-10-05 08:56:00
4:56 AM,48.0,30.0,50,30.07,-9999.0,NNW,15.0,-,N/A,,Unknown,330,2013-10-05 09:56:00
5:56 AM,48.0,28.9,48,30.09,-9999.0,NNW,16.1,26.5,N/A,,Unknown,340,2013-10-05 10:56:00
6:56 AM,46.9,28.9,50,30.10,-9999.0,NNW,15.0,20.7,N/A,,Unknown,330,2013-10-05 11:56:00
7:56 AM,46.9,28.9,50,30.12,-9999.0,NNW,9.2,20.7,N/A,,Unknown,330,2013-10-05 12:56:00
8:56 AM,48.0,28.9,48,30.12,-9999.0,NNW,17.3,27.6,N/A,,Unknown,330,2013-10-05 13:56:00
9:56 AM,48.9,28.0,44,30.15,-9999.0,NW,17.3,24.2,N/A,,Unknown,320,2013-10-05 14:56:00
10:56 AM,52.0,28.0,40,30.15,-9999.0,NW,19.6,32.2,N/A,,Unknown,320,2013-10-05 15:56:00
11:56 AM,57.9,28.0,32,30.12,-9999.0,NNW,18.4,27.6,N/A,,Unknown,330,2013-10-05 16:56:00
12:56 PM,61.0,28.0,29,30.10,-9999.0,NW,20.7,31.1,N/A,,Unknown,320,2013-10-05 17:56:00
1:56 PM,64.0,27.0,25,30.06,-9999.0,NW,19.6,29.9,N/A,,Unknown,320,2013-10-05 18:56:00
2:56 PM,66.0,27.0,23,30.04,-9999.0,NW,19.6,31.1,N/A,,Unknown,310,2013-10-05 19:56:00
3:56 PM,66.0,28.0,24,30.03,-9999.0,NW,18.4,28.8,N/A,,Unknown,310,2013-10-05 20:56:00
4:56 PM,64.9,26.1,23,30.02,-9999.0,NW,17.3,28.8,N/A,,Unknown,310,2013-10-05 21:56:00
5:56 PM,64.0,23.0,21,30.02,-9999.0,NW,13.8,27.6,N/A,,Unknown,310,2013-10-05 22:56:00
6:56 PM,60.1,21.9,23,30.03,-9999.0,NNW,12.7,20.7,N/A,,Unknown,330,2013-10-05 23:56:00
7:56 PM,54.0,25.0,33,30.04,-9999.0,NW,6.9,-,N/A,,Unknown,320,2013-10-06 00:56:00
8:56 PM,54.0,26.1,34,30.05,-9999.0,WSW,4.6,-,N/A,,Unknown,250,2013-10-06 01:56:00
9:56 PM,48.9,28.0,44,30.07,-9999.0,Calm,Calm,-,N/A,,Unknown,0,2013-10-06 02:56:00
10:56 PM,46.9,30.0,52,30.09,-9999.0,West,6.9,-,N/A,,Unknown,280,2013-10-06 03:56:00
11:56 PM,48.0,27.0,44,30.08,-9999.0,WNW,6.9,-,N/A,,Unknown,300,2013-10-06 04:56:00